Weather History for K65S - September, 2013

Change the Weather History Date:

Sunday, September 29, 2013

  Actual Average (KDEW) Record (KDEW)
Temperature  
Mean Temperature 48 °F 51 °F  
Max Temperature 51 °F 67 °F 82 °F (2006)
Min Temperature 46 °F 34 °F 28 °F (2001)
Degree Days  
Heating Degree Days 16 14  
Month to date heating degree days 261  
Since 1 July heating degree days 405  
Cooling Degree Days 0 0  
Month to date cooling degree days 10  
Year to date cooling degree days 185  
Moisture  
Dew Point 44 °F    
Average Humidity 84    
Maximum Humidity 94    
Minimum Humidity 71    
Precipitation  
Precipitation 0.18 in 0.04 in 0.23 in (2013)
Month to date precipitation 0.96  
Year to date precipitation 14.40  
Sea Level Pressure  
Sea Level Pressure 29.58 in    
Wind  
Wind Speed 6 mph (South)    
Max Wind Speed 14 mph    
Max Gust Speed 21 mph    
Visibility 9 miles    
Events Rain    
T = Trace of Precipitation, MM = Missing Value Source: NWS Daily Summary

Daily Weather History Graph

Daily Weather History Graph

Search for Another Location

Airport or City:

Trip Planner

Search our weather history database for the weather conditions in past years. The results will help you decide how hot, cold, wet, or windy it might be!

Date:

Astronomy

Sep. 29, 2013 Rise Set
Actual Time 6:42 AM PDT 6:27 PM PDT
Civil Twilight 6:10 AM PDT 6:58 PM PDT
Nautical Twilight 5:34 AM PDT 7:35 PM PDT
Astronomical Twilight 4:56 AM PDT 8:12 PM PDT
Moon 1:05 AM PDT (9/29) 3:46 PM PDT (9/29)
Length of Visible Light 12h 47m
Length of Day
11h 45m
Waning Crescent, 26% of the Moon is Illuminated
Sep 29
Waning Crescent
Oct 4
New
Oct 11
First Quarter
Oct 18
Full
Oct 26
Last Quarter

Hourly Weather History & Observations

Time (PDT) Temp. Windchill Dew Point Humidity Pressure Visibility Wind Dir Wind Speed Gust Speed Precip Events Conditions
12:10 AM 51.8 °F - 50.0 °F 94% 29.45 in 7.0 mi ENE 8.1 mph - 0.01 in Rain Light Rain
12:30 AM 51.8 °F - 50.0 °F 94% 29.43 in 6.0 mi SE 4.6 mph - 0.03 in Rain Light Rain
12:50 AM 51.8 °F - 50.0 °F 94% 29.43 in 7.0 mi Calm Calm - 0.05 in Rain Light Rain
1:10 AM 51.8 °F - 50.0 °F 94% 29.42 in 5.0 mi SSE 5.8 mph 16.1 mph 0.03 in Rain Rain
1:30 AM 51.8 °F - 50.0 °F 94% 29.42 in 5.0 mi South 5.8 mph - 0.06 in Rain Light Rain
1:50 AM 51.8 °F - 50.0 °F 94% 29.43 in 5.0 mi SSW 5.8 mph - 0.09 in Rain Light Rain
2:10 AM 51.8 °F - 50.0 °F 94% 29.46 in 5.0 mi SSW 9.2 mph 17.3 mph 0.02 in Rain Light Rain
2:35 AM 50.0 °F - 48.2 °F 94% 29.47 in 7.0 mi SSW 6.9 mph 20.7 mph 0.05 in Rain Light Rain
2:55 AM 50.0 °F - 46.4 °F 87% 29.47 in 9.0 mi South 13.8 mph 19.6 mph 0.05 in Rain Light Rain
3:15 AM 50.0 °F - 44.6 °F 82% 29.46 in 10.0 mi SSW 8.1 mph - 0.01 in   Overcast
3:35 AM 48.2 °F - 44.6 °F 87% 29.47 in 9.0 mi South 11.5 mph 20.7 mph 0.01 in Rain Light Rain
3:55 AM 48.2 °F - 44.6 °F 87% 29.48 in 8.0 mi SSW 8.1 mph 18.4 mph 0.01 in Rain Light Rain
4:15 AM 48.2 °F - 44.6 °F 87% 29.49 in 10.0 mi South 6.9 mph 16.1 mph N/A   Overcast
4:35 AM 48.2 °F - 44.6 °F 87% 29.50 in 10.0 mi SSW 6.9 mph - N/A   Overcast
4:55 AM 48.2 °F - 44.6 °F 87% 29.51 in 10.0 mi SSW 6.9 mph - N/A   Overcast
5:15 AM 46.4 °F 41.5 °F 44.6 °F 93% 29.52 in 10.0 mi SSW 10.4 mph 18.4 mph N/A   Overcast
5:35 AM 46.4 °F 41.5 °F 42.8 °F 87% 29.53 in 10.0 mi SSW 10.4 mph 16.1 mph N/A   Overcast
5:55 AM 46.4 °F 41.9 °F 41.0 °F 81% 29.56 in 10.0 mi South 9.2 mph 17.3 mph N/A   Mostly Cloudy
6:15 AM 46.4 °F 41.1 °F 41.0 °F 81% 29.54 in 10.0 mi South 11.5 mph 18.4 mph N/A   Mostly Cloudy
6:35 AM 46.4 °F 45.2 °F 41.0 °F 81% 29.56 in 10.0 mi South 3.5 mph - N/A   Mostly Cloudy
6:55 AM 46.4 °F 44.3 °F 41.0 °F 81% 29.57 in 10.0 mi South 4.6 mph - N/A   Overcast
7:15 AM 46.4 °F - 41.0 °F 81% 29.59 in 10.0 mi Calm Calm - N/A   Overcast
7:35 AM 46.4 °F 44.3 °F 41.0 °F 81% 29.59 in 10.0 mi SE 4.6 mph - N/A   Overcast
7:55 AM 46.4 °F 43.5 °F 41.0 °F 81% 29.60 in 10.0 mi South 5.8 mph - N/A   Overcast
8:15 AM 46.4 °F 42.9 °F 41.0 °F 81% 29.60 in 10.0 mi SSW 6.9 mph - N/A   Overcast
8:35 AM 46.4 °F 41.9 °F 39.2 °F 76% 29.61 in 10.0 mi SSW 9.2 mph 16.1 mph N/A   Overcast
8:55 AM 46.4 °F 42.9 °F 41.0 °F 81% 29.63 in 10.0 mi SSW 6.9 mph - N/A   Overcast
9:15 AM 46.4 °F 44.3 °F 41.0 °F 81% 29.63 in 10.0 mi South 4.6 mph - N/A   Overcast
9:35 AM 46.4 °F 42.9 °F 41.0 °F 81% 29.63 in 10.0 mi SSW 6.9 mph 18.4 mph N/A   Overcast
9:55 AM 48.2 °F - 41.0 °F 76% 29.64 in 10.0 mi South 6.9 mph - N/A Rain Light Rain
10:15 AM 46.4 °F 42.9 °F 41.0 °F 81% 29.65 in 10.0 mi SSW 6.9 mph - N/A   Overcast
10:35 AM 48.2 °F - 41.0 °F 76% 29.65 in 10.0 mi SSW 6.9 mph - N/A   Overcast
10:55 AM 46.4 °F 44.3 °F 41.0 °F 81% 29.66 in 6.0 mi SSW 4.6 mph 16.1 mph N/A Rain Light Rain
11:15 AM 46.4 °F 42.4 °F 41.0 °F 81% 29.66 in 10.0 mi South 8.1 mph - N/A   Mostly Cloudy
11:35 AM 48.2 °F - 41.0 °F 76% 29.66 in 10.0 mi South 6.9 mph 16.1 mph N/A   Overcast
11:55 AM 48.2 °F - 41.0 °F 76% 29.66 in 10.0 mi SSW 9.2 mph - 0.01 in   Overcast
12:15 PM 48.2 °F - 41.0 °F 76% 29.65 in 10.0 mi SSW 9.2 mph - N/A   Overcast
12:35 PM 48.2 °F - 41.0 °F 76% 29.66 in 10.0 mi South 8.1 mph - N/A   Overcast
12:55 PM 50.0 °F - 41.0 °F 71% 29.66 in 10.0 mi South 6.9 mph - N/A   Overcast
1:15 PM 50.0 °F - 42.8 °F 76% 29.65 in 10.0 mi South 6.9 mph - N/A   Mostly Cloudy
1:35 PM 50.0 °F - 42.8 °F 76% 29.64 in 10.0 mi South 5.8 mph - N/A   Scattered Clouds
1:55 PM 51.8 °F - 42.8 °F 71% 29.64 in 10.0 mi South 9.2 mph - N/A   Scattered Clouds
2:15 PM 51.8 °F - 42.8 °F 71% 29.64 in 10.0 mi South 8.1 mph 16.1 mph N/A   Mostly Cloudy
2:35 PM 51.8 °F - 44.6 °F 76% 29.64 in 10.0 mi Calm Calm - N/A   Mostly Cloudy
2:55 PM 51.8 °F - 44.6 °F 76% 29.65 in 10.0 mi South 10.4 mph - N/A   Mostly Cloudy
3:15 PM 50.0 °F - 44.6 °F 82% 29.64 in 10.0 mi South 8.1 mph - N/A   Scattered Clouds
3:35 PM 50.0 °F - 42.8 °F 76% 29.64 in 10.0 mi South 8.1 mph - N/A   Partly Cloudy
3:55 PM 50.0 °F - 44.6 °F 82% 29.64 in 10.0 mi Calm Calm - N/A   Partly Cloudy
4:15 PM 50.0 °F - 44.6 °F 82% 29.64 in 10.0 mi SSW 6.9 mph - N/A Rain Light Rain
4:35 PM 48.2 °F - 44.6 °F 87% 29.64 in 10.0 mi SSW 6.9 mph - N/A Rain Light Rain
4:55 PM 48.2 °F - 44.6 °F 87% 29.64 in 7.0 mi SSW 3.5 mph - N/A Rain Light Rain
5:15 PM 48.2 °F - 44.6 °F 87% 29.64 in 10.0 mi SSW 4.6 mph - 0.01 in Rain Light Rain
5:35 PM 48.2 °F - 44.6 °F 87% 29.63 in 10.0 mi SSW 6.9 mph - 0.01 in Rain Light Rain
5:55 PM 48.2 °F - 44.6 °F 87% 29.63 in 10.0 mi SSW 8.1 mph - 0.01 in   Overcast
6:15 PM 48.2 °F - 44.6 °F 87% 29.63 in 9.0 mi SSW 3.5 mph - N/A   Overcast
6:35 PM 48.2 °F - 44.6 °F 87% 29.63 in 8.0 mi SW 4.6 mph - N/A   Overcast
6:55 PM 46.4 °F - 44.6 °F 93% 29.63 in 10.0 mi Calm Calm - N/A   Overcast
7:15 PM 48.2 °F - 44.6 °F 87% 29.62 in 10.0 mi SSW 4.6 mph - N/A   Overcast
7:35 PM 48.2 °F - 44.6 °F 87% 29.62 in 10.0 mi SSW 8.1 mph - N/A   Overcast
7:55 PM 48.2 °F - 42.8 °F 82% 29.62 in 10.0 mi South 4.6 mph - N/A   Overcast
8:15 PM 46.4 °F 43.5 °F 44.6 °F 93% 29.61 in 10.0 mi SSW 5.8 mph - N/A   Overcast
8:35 PM 46.4 °F 44.3 °F 44.6 °F 93% 29.60 in 10.0 mi SSW 4.6 mph - N/A   Overcast
8:55 PM 46.4 °F - 44.6 °F 93% 29.59 in 10.0 mi Calm Calm - N/A   Overcast
9:15 PM 46.4 °F 45.2 °F 42.8 °F 87% 29.58 in 10.0 mi South 3.5 mph - N/A   Overcast
9:35 PM 46.4 °F 42.4 °F 42.8 °F 87% 29.57 in 10.0 mi ENE 8.1 mph - N/A   Overcast
9:55 PM 46.4 °F 45.2 °F 44.6 °F 93% 29.57 in 10.0 mi East 3.5 mph - N/A   Overcast
10:15 PM 46.4 °F 45.2 °F 42.8 °F 87% 29.56 in 10.0 mi SE 3.5 mph - N/A   Overcast
10:35 PM 46.4 °F 45.2 °F 42.8 °F 87% 29.55 in 10.0 mi East 3.5 mph - N/A   Overcast
10:55 PM 46.4 °F - 42.8 °F 87% 29.54 in 10.0 mi Calm Calm - N/A   Overcast
11:15 PM 46.4 °F - 42.8 °F 87% 29.53 in 10.0 mi Calm Calm - N/A   Overcast
11:35 PM 46.4 °F - 42.8 °F 87% 29.51 in 10.0 mi Calm Calm - 0.01 in   Overcast
11:55 PM 46.4 °F 45.2 °F 44.6 °F 93% 29.49 in 10.0 mi East 3.5 mph - 0.01 in   Overcast